{"data":{"norad_id":63366,"intl_designator":"2025-063D","name":"STARLINK-33742","alt_names":[],"object_type":"PAYLOAD","status":"ACTIVE","operator":null,"country":"US","launch_date":"2025-03-26","launch_site_code":"AFWTR","launch_vehicle":null,"mission":null,"orbit_class":"UNKNOWN","rcs_meters":null,"size_class":null,"mass_kg":null,"dimensions":null,"purposes":["comms"],"wikipedia_slug":null,"has_3d_model":false,"image_url":null,"decayed_at":null,"tle_current":{"epoch":"2026-09-20T07:47:59.898048Z","epoch_age_seconds":174006,"freshness":"STALE","line1":"1 63366U 25063D   26263.32499882  .00013341  00000+0  40526-3 0  9995","line2":"2 63366  53.1569 226.6554 0001227  90.2262 269.8881 15.34401206 84536","mean_motion":15.34401206,"eccentricity":0.0001227,"inclination_deg":53.1569,"raan_deg":226.6554,"arg_perigee_deg":90.2262,"mean_anomaly_deg":269.8881,"bstar":0.00040526,"rev_number":8453,"period_min":93.847684319403,"perigee_km":461.86028506564,"apogee_km":463.53902638096,"semimajor_km":6840.8366557233,"source":"CELESTRAK","updated_at":"2026-09-21T09:00:34.972413Z"}}}